Lexington Weather

Lexington, Massachusetts, USA

34°F
4/16/2021 11:10am 
  • Lexington Conditions: Light snow, Mist, Overcast
  • Temperature: 33.8°F / 1.0°C 
  • Dew Point: 32.5°F 
  • Relative Humidity: 95
  • Wind: Wind from N N Calm, 10-min avg: 2 mph, gust: 4 mph
  • Barometer: 29.46 inFalling 0.03  inHg/hr Falling Slowly
  • Visibility: 1 mile
  • Snow Today: 1.7 in
  •   

Regional Weather Roundup
for Boston / Norton, MA

        
000
ASUS41 KBOX 100104
RWRBOX

REGIONAL WEATHER ROUNDUP
NATIONAL WEATHER SERVICE BOSTON/NORTON MA
900 PM EDT FRI APR 09 2021

NOTE:  "FAIR" INDICATES FEW OR NO CLOUDS BELOW 12,000 FEET WITH NO 
SIGNIFICANT WEATHER AND/OR OBSTRUCTIONS TO VISIBILITY.

MAZALL-100200-
EASTERN MASSACHUSETTS
  
CITY           SKY/WX    TMP DP  RH WIND       PRES   REMARKS
BOSTON         PTCLDY    55  42  61 S8        30.11S                  
BEVERLY        CLEAR     50  43  77 SE5       30.10S                  
LAWRENCE       CLEAR     53  43  68 SE3       30.11R                  
BEDFORD        PTCLDY    56  42  59 S9        30.09R                  
BLUE HILL        N/A     50  41  71 S13       30.10S                  
NORWOOD        PTCLDY    53  42  66 S7        30.12R                  
MARSHFIELD     CLEAR     52  45  76 S6        30.13R                  
PLYMOUTH       CLEAR     47  42  83 S5        30.13S                  
TAUNTON        PTCLDY    47  41  80 VRB5      30.14R                  
NEW BEDFORD    PTCLDY    44  42  93 SW5       30.15R                  
$$

MAZALL-100200-
CAPE COD AND THE ISLANDS
  
CITY           SKY/WX    TMP DP  RH WIND       PRES   REMARKS
FALMOUTH       FOG       43  43 100 W9        30.16S VSB 1            
HYANNIS        CLEAR     46  43  89 SW7       30.14R                  
CHATHAM        CLEAR     46  43  89 SW5       30.17R                  
PROVINCETOWN   CLEAR     46  43  89 SW10      30.16R                  
NANTUCKET      FOG       42  41  96 W10       30.17R VSB 1/2          
MARTHAS VNYRD  FOG       43  43 100 CALM      30.16S VSB 3/4          
$$
 
MAZALL-100200-
CENTRAL AND WESTERN MASSACHUSETTS
  
CITY           SKY/WX    TMP DP  RH WIND       PRES   REMARKS
WORCESTER      MOCLDY    57  42  57 SW9       30.10R                  
FITCHBURG      PTCLDY    60  44  55 SE8       30.09R                  
ORANGE         PTCLDY    59  41  51 S8        30.09R                  
SPRINGFIELD    MOCLDY    57  43  59 S6        30.09R                  
WESTFIELD      CLOUDY    58  44  60 S9        30.09R                  
NORTH ADAMS    CLOUDY    64  40  41 W5        30.06R                  
PITTSFIELD     CLOUDY    59  39  47 SW7       30.08R                  
$$
 
RIZALL-100200-
RHODE ISLAND
  
CITY           SKY/WX    TMP DP  RH WIND       PRES   REMARKS
PROVIDENCE     MOCLDY    47  44  90 S8        30.14R                  
NEWPORT        FOG       42  42 100 S6        30.14S VSB 1/2          
BLOCK ISLAND   LGT RAIN  42  41  96 SW12      30.16S VSB 1/2          
SMITHFIELD     PTCLDY    50  44  80 S6        30.13R                  
WESTERLY       CLOUDY    42  42 100 S6        30.15S FOG              
$$
 
CTZALL-100200-
CONNECTICUT
  
CITY           SKY/WX    TMP DP  RH WIND       PRES   REMARKS
BRADLEY INTL   CLOUDY    57  44  62 S13       30.11R                  
HARTFORD       CLOUDY    55  44  66 S8        30.13R                  
BRIDGEPORT     LGT RAIN  50  45  83 S7        30.15R                  
DANBURY        MOCLDY    55  43  63 S5        30.14R                  
GROTON         MOCLDY    44  43  96 S5        30.15R                  
NEW HAVEN      CLOUDY    50  46  86 S3        30.15R                  
CHESTER        MOCLDY    48  45  87 SW5       30.14S                  
MERIDEN        CLOUDY    52  43  71 S8        30.13S                  
WILLIMANTIC    MOCLDY    53  44  71 S6        30.13R                  
OXFORD         CLOUDY    50  46  86 S6        30.13S                  
$$

MEZ002-015-021-024-NHZ003-005-008-011-012-014-VTZ005-008-100200-
NORTHERN NEW ENGLAND
  
CITY           SKY/WX    TMP DP  RH WIND       PRES   REMARKS
PORTLAND ME    PTCLDY    48  43  82 S7        30.11R                  
BANGOR ME      PTCLDY    52  44  74 S6        30.08R                  
CONCORD NH     CLEAR     58  43  57 SE7       30.08R                  
MANCHESTER NH  PTCLDY    58  43  57 SE6       30.08R                  
NASHUA NH      CLEAR     57  45  64 SE6       30.09R                  
PORTSMOUTH NH  PTCLDY    49  42  77 S7        30.11R                  
JAFFREY NH     PTCLDY    53  43  68 S3        30.08R                  
KEENE NH       PTCLDY    55  42  61 S5        30.07R                  
BURLINGTON VT  MOCLDY    67  39  35 SE5       29.99R                  
MT. WASHINGTON PTCLDY    41  36  81 W15         N/A                   
$$

NYZ052-076-100200-
EASTERN NEW YORK
  
CITY           SKY/WX    TMP DP  RH WIND       PRES   REMARKS
ALBANY         CLOUDY    60  42  51 S9        30.06R                  
NEW YORK CITY  CLOUDY    49  44  83 S7        30.15R                  
$$
 
ANZALL-100200-
MARINE OBSERVATIONS
  
STATION/POSITION TIME  TEMP    WIND        PRES    VSBY  WAVE
                       AIR SEA DIR/SP/G                  HT/PER
                 (UTC) (F)     (DEG/KT/KT) (MB)    (MI)  (FT/S)
BOSTON BUOY      0040   48 44  160/ 12/ 14 1020.4R
BUZZARDS BAY     0000          220/ 12/ 13 1021.9R
NANTUCKET SOUND  0040      46                N/A
MASS BAY-STELLWA 0004   48     160/ 12/ 14 1018.7R  1 7/8  5/ 8
ISLE OF SHOALS   0000   47     170/ 17/ 19 1018.7F
S OF BLOCK IS    0026      46                N/A           3/11
$$

......................KEY.........................
  SKY/WX - SKY CONDITION/PRESENT WEATHER
  TMP    - TEMPERATURE IN FAHRENHEIT
  DWPT   - DEWPOINT IN FAHRENHEIT
  RH     - RELATIVE HUMIDITY IN PERCENT
  WIND   - DIRECTION AND SPEED IN MPH
  PRES   - MEAN SEA LEVEL PRESSURE IN INCHES OF HG
  WCI    - WIND CHILL INDEX
  VSB    - VISIBILITY IN MILES
  HX     - HEAT INDEX
  TC     - TEMPERATURE IN CELSIUS
  VRB    - VARIABLE WIND DIRECTION
  N/A    - NOT AVAILABLE
  
      

Other recent Regional Weather Roundups

Fri Apr 16, 10:05am

Fri Apr 16, 9:04am

Fri Apr 16, 8:04am

Fri Apr 16, 7:04am

Fri Apr 16, 6:04am

Fri Apr 16, 5:04am

Fri Apr 16, 4:04am

Fri Apr 16, 3:04am

Fri Apr 16, 2:04am

Fri Apr 16, 1:04am

Fri Apr 16, 12:04am

Thu Apr 15, 11:05pm

Thu Apr 15, 10:04pm

Thu Apr 15, 9:04pm

Thu Apr 15, 8:04pm

Thu Apr 15, 7:05pm

Thu Apr 15, 6:04pm

Thu Apr 15, 5:05pm

Thu Apr 15, 4:04pm

Thu Apr 15, 3:05pm

Thu Apr 15, 2:04pm

Thu Apr 15, 1:05pm

Thu Apr 15, 12:04pm

Thu Apr 15, 11:04am

Thu Apr 15, 10:05am

Thu Apr 15, 9:04am

Thu Apr 15, 8:04am

Thu Apr 15, 7:04am

Thu Apr 15, 6:04am

Thu Apr 15, 5:04am

Thu Apr 15, 4:04am

Thu Apr 15, 3:04am

Thu Apr 15, 2:04am

Thu Apr 15, 1:04am

Thu Apr 15, 12:04am

Wed Apr 14, 11:04pm

Wed Apr 14, 10:04pm

Wed Apr 14, 9:04pm

Wed Apr 14, 8:04pm

Wed Apr 14, 7:04pm

Wed Apr 14, 6:04pm

Wed Apr 14, 5:05pm

Wed Apr 14, 4:04pm

Wed Apr 14, 3:05pm

Wed Apr 14, 2:04pm

Wed Apr 14, 1:05pm

Wed Apr 14, 12:04pm

Wed Apr 14, 11:04am

Wed Apr 14, 10:04am

Wed Apr 14, 9:04am

Wed Apr 14, 8:04am

Wed Apr 14, 7:04am

Wed Apr 14, 6:04am

Wed Apr 14, 5:04am

Wed Apr 14, 4:04am

Wed Apr 14, 3:04am

Wed Apr 14, 2:04am

Wed Apr 14, 1:04am

Wed Apr 14, 12:04am

Tue Apr 13, 11:04pm

Tue Apr 13, 10:05pm

Tue Apr 13, 9:05pm

Tue Apr 13, 8:05pm

Tue Apr 13, 7:04pm

Tue Apr 13, 6:04pm

Tue Apr 13, 5:05pm

Tue Apr 13, 4:04pm

Tue Apr 13, 3:04pm

Tue Apr 13, 2:05pm

Tue Apr 13, 1:04pm

Tue Apr 13, 12:05pm

Tue Apr 13, 11:05am

Tue Apr 13, 10:04am

Tue Apr 13, 9:04am

Tue Apr 13, 8:04am

Tue Apr 13, 7:04am

Tue Apr 13, 6:04am

Tue Apr 13, 5:04am

Tue Apr 13, 4:04am

Tue Apr 13, 3:04am

Tue Apr 13, 2:04am

Tue Apr 13, 1:04am

Tue Apr 13, 12:05am

Mon Apr 12, 11:04pm

Mon Apr 12, 10:04pm

Mon Apr 12, 9:04pm

Mon Apr 12, 8:04pm

Mon Apr 12, 7:05pm

Mon Apr 12, 6:04pm

Mon Apr 12, 5:04pm

Mon Apr 12, 4:04pm

Mon Apr 12, 3:05pm

Mon Apr 12, 2:04pm

Mon Apr 12, 1:05pm

Mon Apr 12, 12:04pm

Mon Apr 12, 11:04am

Mon Apr 12, 10:04am

Mon Apr 12, 9:04am

Mon Apr 12, 8:04am

Mon Apr 12, 7:04am

Mon Apr 12, 6:04am

Mon Apr 12, 5:04am

Mon Apr 12, 4:04am

Mon Apr 12, 3:04am

Mon Apr 12, 2:04am

Mon Apr 12, 1:05am

Mon Apr 12, 12:04am

Sun Apr 11, 11:04pm

Sun Apr 11, 10:04pm

Sun Apr 11, 9:04pm

Sun Apr 11, 8:04pm

Sun Apr 11, 7:04pm

Sun Apr 11, 6:05pm

Sun Apr 11, 5:05pm

Sun Apr 11, 4:04pm

Sun Apr 11, 3:05pm

Sun Apr 11, 2:05pm

Sun Apr 11, 1:05pm

Sun Apr 11, 12:04pm

Sun Apr 11, 11:05am

Sun Apr 11, 10:05am

Sun Apr 11, 9:04am

Sun Apr 11, 8:04am

Sun Apr 11, 7:04am

Sun Apr 11, 6:04am

Sun Apr 11, 5:04am

Sun Apr 11, 4:04am

Sun Apr 11, 3:04am

Sun Apr 11, 2:04am

Sun Apr 11, 1:05am

Sun Apr 11, 12:04am

Sat Apr 10, 11:05pm

Sat Apr 10, 10:04pm

Sat Apr 10, 9:04pm

Sat Apr 10, 8:04pm

Sat Apr 10, 7:05pm

Sat Apr 10, 6:04pm

Sat Apr 10, 5:04pm

Sat Apr 10, 4:04pm

Sat Apr 10, 3:04pm

Sat Apr 10, 2:05pm

Sat Apr 10, 1:04pm

Sat Apr 10, 12:04pm

Sat Apr 10, 11:04am

Sat Apr 10, 10:04am

Sat Apr 10, 9:04am

Sat Apr 10, 8:04am

Sat Apr 10, 7:04am

Sat Apr 10, 6:04am

Sat Apr 10, 5:04am

Sat Apr 10, 4:04am

Sat Apr 10, 3:04am

Sat Apr 10, 2:04am

Sat Apr 10, 1:05am

Sat Apr 10, 12:04am

Fri Apr 9, 11:04pm

Fri Apr 9, 10:05pm

Fri Apr 9, 8:05pm

Fri Apr 9, 7:05pm

Fri Apr 9, 6:04pm

Fri Apr 9, 5:04pm

Fri Apr 9, 4:05pm

Fri Apr 9, 3:05pm

Fri Apr 9, 2:04pm

Fri Apr 9, 1:04pm

Fri Apr 9, 12:04pm

Fri Apr 9, 11:05am

Meta data:

ID: 75f2c84a-538e-4c73-a368-2eec0c1ff576
Link: https://api.weather.gov/products/75f2c84a-538e-4c73-a368-2eec0c1ff576